Gulkana, AK

1:16 AM AKDT on June 24, 2017 (GMT -0800)
Gulkana

Weather History for PAGK - October, 2013

Change the Weather History Date:

Thursday, October 10, 2013

  Actual Average Record
Temperature  
Mean Temperature 29 °F -  
Max Temperature 41 °F 41 °F 58 °F (1986)
Min Temperature 17 °F 24 °F 0 °F (1961)
Degree Days  
Heating Degree Days 36    
Moisture  
Dew Point 25 °F    
Average Humidity 81    
Maximum Humidity 92    
Minimum Humidity 50    
Precipitation  
Precipitation 0.00 in - - ()
Sea Level Pressure  
Sea Level Pressure 29.80 in    
Wind  
Wind Speed 4 mph (SSE)    
Max Wind Speed 17 mph    
Max Gust Speed 26 mph    
Visibility 10 miles    
Events      
Averages and records for this station are not official NWS values.
T = Trace of Precipitation, MM = Missing Value Source: NWS Daily Summary

Daily Weather History Graph

Daily Weather History Graph

Search for Another Location

Airport or City:

Trip Planner

Search our weather history database for the weather conditions in past years. The results will help you decide how hot, cold, wet, or windy it might be!

Date:

Astronomy

Oct. 10, 2013 Rise Set
Actual Time 8:14 AM AKDT 6:41 PM AKDT
Civil Twilight 7:29 AM AKDT 7:26 PM AKDT
Nautical Twilight 6:37 AM AKDT 8:17 PM AKDT
Astronomical Twilight 5:44 AM AKDT 9:10 PM AKDT
Moon 3:26 PM AKDT (10/10) 10:20 PM AKDT (10/10)
Length of Visible Light 11h 57m
Length of Day
10h 27m
Waxing Crescent, 37% of the Moon is Illuminated
Oct 10
Waxing Crescent
Oct 11
First Quarter
Oct 18
Full
Oct 26
Last Quarter
Nov 3
New

Hourly Weather History & Observations

Time (AKDT) Temp. Windchill Dew Point Humidity Pressure Visibility Wind Dir Wind Speed Gust Speed Precip Events Conditions
12:53 AM 27.0 °F 23.0 °F 23.0 °F 85% 29.75 in 10.0 mi East 3.5 mph - N/A   Clear
1:53 AM 21.9 °F - 19.9 °F 92% 29.77 in 10.0 mi Calm Calm - N/A   Partly Cloudy
2:53 AM 21.0 °F - 19.0 °F 92% 29.78 in 10.0 mi Calm Calm - N/A   Clear
3:53 AM 19.9 °F - 18.0 °F 92% 29.78 in 10.0 mi Calm Calm - N/A   Partly Cloudy
4:53 AM 19.9 °F - 17.1 °F 89% 29.79 in 10.0 mi Calm Calm - N/A   Partly Cloudy
5:53 AM 19.0 °F - 16.0 °F 88% 29.80 in 10.0 mi Calm Calm - N/A   Partly Cloudy
6:53 AM 18.0 °F - 16.0 °F 92% 29.82 in 10.0 mi Calm Calm - N/A   Clear
7:53 AM 19.9 °F 13.4 °F 18.0 °F 92% 29.82 in 10.0 mi North 4.6 mph - N/A   Clear
8:53 AM 21.9 °F 17.2 °F 19.9 °F 92% 29.82 in 10.0 mi North 3.5 mph - N/A   Clear
9:53 AM 25.0 °F - 23.0 °F 92% 29.83 in 10.0 mi Calm Calm - N/A   Clear
10:53 AM 27.0 °F - 25.0 °F 92% 29.83 in 10.0 mi Calm Calm - N/A   Clear
11:53 AM 32.0 °F - 27.0 °F 82% 29.82 in 10.0 mi Calm Calm - N/A   Clear
12:53 PM 33.1 °F 27.7 °F 26.1 °F 75% 29.82 in 10.0 mi South 5.8 mph - N/A   Clear
1:53 PM 34.0 °F 28.8 °F 27.0 °F 75% 29.81 in 10.0 mi South 5.8 mph - N/A   Clear
2:53 PM 37.0 °F 33.3 °F 28.0 °F 70% 29.79 in 10.0 mi SSE 4.6 mph - N/A   Clear
3:53 PM 39.0 °F 33.4 °F 27.0 °F 62% 29.78 in 10.0 mi SSE 8.1 mph - N/A   Mostly Cloudy
4:53 PM 41.0 °F 33.5 °F 25.0 °F 53% 29.77 in 10.0 mi SSE 13.8 mph - N/A   Overcast
5:53 PM 39.9 °F 31.1 °F 28.0 °F 63% 29.78 in 10.0 mi SE 17.3 mph 26.5 mph N/A   Overcast
6:53 PM 37.9 °F 28.5 °F 30.0 °F 73% 29.79 in 10.0 mi SSE 17.3 mph 24.2 mph N/A   Overcast
7:53 PM 37.0 °F 28.1 °F 30.9 °F 79% 29.79 in 10.0 mi SSE 15.0 mph 20.7 mph N/A   Overcast
8:53 PM 37.0 °F 29.3 °F 30.9 °F 79% 29.80 in 10.0 mi SSE 11.5 mph - N/A   Overcast
9:53 PM 37.0 °F 27.7 °F 32.0 °F 82% 29.80 in 10.0 mi SSE 16.1 mph - N/A   Overcast
10:53 PM 37.0 °F 29.3 °F 32.0 °F 82% 29.81 in 10.0 mi South 11.5 mph - N/A   Overcast
11:53 PM 37.0 °F 29.8 °F 32.0 °F 82% 29.80 in 10.0 mi South 10.4 mph - N/A   Overcast